Date,TemperatureHighF,TemperatureAvgF,TemperatureLowF,DewpointHighF,DewpointAvgF,DewpointLowF,HumidityHigh,HumidityAvg,HumidityLow,PressureMaxIn,PressureMinIn,WindSpeedMaxMPH,WindSpeedAvgMPH,GustSpeedMaxMPH,PrecipitationSumIn
2013-1-1,34,24,5,28,14,2,96,64,47,30.05,29.79,16,5,0,0.00
2013-1-2,27,10,-3,15,4,-8,94,75,55,30.26,29.99,12,3,0,0.00
2013-1-3,17,2,-10,2,-5,-12,90,74,39,30.26,30.01,6,2,0,0.00
2013-1-4,37,25,4,22,16,1,94,72,53,29.99,29.82,13,4,0,0.00
2013-1-5,37,29,15,24,19,14,95,68,39,30.26,29.85,18,4,0,0.00
2013-1-6,42,28,16,28,24,14,96,82,55,30.21,29.91,6,2,0,0.01
2013-1-7,37,25,9,28,18,9,97,77,35,30.36,29.95,9,2,0,0.00
2013-1-8,44,20,4,26,15,2,99,85,49,30.31,30.20,5,2,0,0.00
2013-1-9,43,24,9,29,20,8,99,85,53,30.32,29.87,10,2,0,0.00
2013-1-10,43,36,24,28,24,22,92,62,45,30.43,29.92,17,6,0,0.00
2013-1-11,32,25,19,32,25,19,99,98,93,30.40,30.03,3,1,0,0.12
2013-1-12,42,36,32,40,35,32,99,98,92,30.05,29.96,3,1,0,0.02
2013-1-13,42,37,33,42,37,33,99,99,95,29.98,29.82,4,1,0,0.01
2013-1-14,53,40,32,48,35,24,99,84,50,30.13,29.70,13,3,0,0.02
2013-1-15,38,30,23,28,25,22,99,83,53,30.19,30.07,4,1,0,0.00
2013-1-16,35,29,24,31,28,24,99,96,85,30.06,29.64,2,0,0,0.00
2013-1-17,40,29,20,34,22,2,99,77,45,29.96,29.64,11,2,0,0.06
2013-1-18,25,14,4,9,1,-5,85,59,31,30.23,29.92,10,3,0,0.01
2013-1-19,44,30,16,27,20,9,85,66,44,30.13,29.65,9,3,0,0.00
2013-1-20,42,31,23,30,21,6,89,67,42,29.79,29.37,14,5,0,0.00
2013-1-21,29,20,14,19,8,-2,96,60,37,29.90,29.63,10,3,0,0.00
2013-1-22,23,13,0,18,6,-4,98,75,44,29.91,29.60,10,2,0,0.00
2013-1-23,12,3,-7,-2,-12,-16,83,53,29,29.99,29.89,13,3,0,0.00
2013-1-24,16,3,-12,-8,-11,-15,88,56,32,30.11,29.95,14,4,0,0.00
2013-1-25,23,10,-3,5,-6,-10,80,51,26,30.18,29.91,8,2,0,0.00
2013-1-26,22,11,1,7,0,-7,92,64,32,30.10,29.88,9,4,0,0.00
2013-1-27,28,14,5,3,1,-4,84,58,25,30.32,30.10,10,4,0,0.00
2013-1-28,22,15,4,18,10,0,95,81,51,30.31,29.84,3,1,0,0.00
2013-1-29,35,27,19,31,24,18,99,89,68,30.02,29.86,5,1,0,0.00
2013-1-30,49,37,32,48,37,31,99,99,99,29.92,29.29,9,2,0,0.78
2013-2-1,20,19,17,5,4,3,59,53,48,29.91,29.84,11,4,0,0.00
2013-2-2,27,19,8,15,7,1,84,61,42,30.04,29.84,10,2,0,0.00
2013-2-3,32,22,11,16,13,9,95,70,43,29.87,29.57,6,2,0,0.00
2013-2-4,29,19,10,14,7,2,96,63,34,29.75,29.56,18,4,0,0.00
2013-2-5,36,17,2,16,7,0,93,68,32,29.86,29.75,5,1,0,0.00
2013-2-6,38,27,19,24,15,2,94,63,33,30.17,29.74,10,3,0,0.00
2013-2-7,32,19,7,7,1,-2,72,47,26,30.39,30.15,7,2,0,0.00
2013-2-8,23,21,17,19,13,0,94,74,36,30.30,29.66,8,3,0,0.00
2013-2-9,23,16,6,18,8,-1,96,72,51,30.13,29.63,15,7,0,0.00
2013-2-10,44,13,-9,14,2,-11,94,66,20,30.32,30.13,7,1,0,0.04
2013-2-11,17,15,6,13,11,4,94,84,81,30.17,29.99,3,2,0,0.00
2013-2-12,17,17,17,13,13,13,83,83,83,29.99,29.99,2,2,0,0.00
2013-2-13,17,17,17,13,13,13,83,83,83,29.99,29.99,2,2,0,0.00
2013-2-14,51,28,17,24,20,13,99,74,34,29.99,29.62,6,2,0,0.00
2013-2-15,34,27,26,28,23,22,91,86,75,29.80,29.78,2,0,0,0.00
2013-2-16,38,34,27,30,23,17,98,66,44,29.83,29.74,6,3,0,0.00
2013-2-17,38,38,38,18,18,18,45,45,45,29.74,29.74,5,5,0,0.00
2013-2-18,38,38,38,18,18,18,45,45,45,29.74,29.74,5,5,0,0.00
2013-2-19,38,38,38,18,18,18,45,45,45,29.74,29.74,5,5,0,0.00
2013-2-20,38,38,38,18,18,18,45,45,45,29.74,29.74,5,5,0,0.00
2013-2-21,38,38,38,18,18,18,45,45,45,29.74,29.74,5,5,0,0.00
2013-2-22,38,38,38,18,18,18,45,45,45,29.74,29.74,5,5,0,0.00
2013-2-23,38,38,38,18,18,18,45,45,45,29.74,29.74,5,5,0,0.00
2013-2-24,38,38,38,18,18,18,45,45,45,29.74,29.74,5,5,0,0.00
2013-2-25,38,38,38,18,18,18,45,45,45,29.74,29.74,5,5,0,0.00
2013-2-26,38,38,38,18,18,18,45,45,45,29.74,29.74,5,5,0,0.00
2013-2-27,39,35,32,37,31,18,99,90,45,29.96,29.49,7,3,0,0.69
2013-2-28,47,35,30,38,33,30,99,92,69,29.49,29.39,4,1,0,0.06
2013-3-1,40,34,27,32,29,27,99,82,62,29.56,29.41,8,3,0,0.00
2013-3-2,40,34,29,29,27,24,84,76,61,29.56,29.50,8,4,0,0.00
2013-3-3,37,31,26,28,25,23,93,80,65,29.53,29.45,9,4,0,0.01
2013-3-4,37,30,26,25,22,19,83,71,57,29.67,29.49,12,6,0,0.00
2013-3-5,46,33,27,29,25,22,96,73,49,29.93,29.67,10,4,0,0.00
2013-3-6,40,34,31,34,29,25,99,82,62,30.02,29.91,10,3,0,0.01
2013-3-7,38,34,31,31,27,24,93,79,64,30.00,29.93,12,5,0,0.00
2013-3-8,42,34,27,28,26,23,96,71,51,30.09,29.89,23,7,0,0.06
2013-3-9,58,36,24,24,22,15,95,63,20,30.19,30.08,10,3,0,0.00
2013-3-10,60,37,19,31,25,19,99,69,28,30.25,30.08,9,2,0,0.00
2013-3-11,47,41,35,40,34,30,89,76,57,30.11,29.94,8,3,0,0.00
2013-3-12,50,44,39,49,44,39,99,97,84,29.94,29.53,6,2,0,1.19
2013-3-13,50,37,25,38,29,21,99,77,38,29.66,29.58,8,3,0,0.00
2013-3-14,32,27,20,26,16,7,97,64,46,29.71,29.58,14,5,0,0.00
2013-3-15,41,27,17,29,14,4,94,60,26,29.73,29.45,10,4,0,0.00
2013-3-16,39,29,21,22,14,10,73,53,33,29.73,29.55,14,4,0,0.00
2013-3-17,35,25,18,17,10,3,87,54,33,30.17,29.73,18,4,0,0.00
2013-3-18,39,24,6,26,7,1,94,54,21,30.31,30.04,6,2,0,0.00
2013-3-19,36,30,26,32,29,26,99,95,81,30.04,29.55,3,0,0,0.02
2013-3-20,42,28,16,26,21,16,99,79,46,29.62,29.54,8,0,0,0.06
2013-3-21,50,26,8,19,14,7,98,68,22,29.63,29.44,5,2,0,0.11
2013-3-22,46,27,10,28,18,9,99,74,38,29.59,29.48,9,3,0,0.08
2013-3-23,42,29,18,22,19,17,99,71,38,29.65,29.53,17,5,0,0.00
2013-3-24,46,35,25,25,23,22,90,63,43,29.70,29.60,10,4,0,0.00
2013-3-25,46,34,24,29,25,22,95,72,46,29.65,29.39,7,2,0,0.00
2013-3-26,48,36,24,32,26,21,94,69,38,29.66,29.43,12,3,0,0.00
2013-3-27,51,37,20,32,25,20,99,68,38,29.76,29.63,9,3,0,0.00
2013-3-28,50,39,30,37,33,29,99,81,48,29.90,29.75,9,2,0,0.00
2013-3-29,54,39,28,36,32,27,99,78,42,29.93,29.86,11,2,0,0.00
2013-3-30,56,38,24,34,24,19,99,65,24,29.96,29.88,12,2,0,0.00
2013-3-31,58,39,20,40,27,20,99,69,28,29.98,29.60,14,3,0,0.21
2013-4-1,56,40,29,47,33,12,99,78,36,29.65,29.36,11,3,0,0.27
2013-4-2,37,30,23,20,14,10,72,50,35,29.76,29.65,16,6,0,0.00
2013-4-3,45,34,26,17,11,7,58,40,22,30.02,29.75,17,7,0,0.00
2013-4-4,60,40,22,24,17,9,80,44,18,30.15,29.83,13,3,0,0.00
2013-4-5,59,43,32,31,26,22,87,56,25,29.83,29.54,14,4,0,0.00
2013-4-6,47,33,24,22,11,4,64,43,18,30.17,29.78,14,6,0,0.00
2013-4-7,60,39,21,38,25,13,86,60,33,30.15,29.78,13,4,0,0.00
2013-4-8,70,48,34,40,36,33,99,68,27,29.95,29.81,12,3,0,0.00
2013-4-9,67,52,40,52,44,38,99,78,42,29.88,29.73,10,2,0,0.35
2013-4-10,61,50,44,51,47,42,99,91,67,29.85,29.72,7,2,0,1.03
2013-4-11,45,41,35,45,38,28,99,89,51,30.01,29.74,8,3,0,0.09
2013-4-12,36,33,32,35,32,30,99,98,91,30.01,29.71,7,2,0,0.23
2013-4-13,39,34,32,39,34,32,99,98,91,29.79,29.67,4,1,0,0.01
2013-4-14,52,41,31,40,32,28,99,75,42,30.09,29.78,13,3,0,0.00
2013-4-15,68,43,24,38,32,24,99,71,30,30.23,30.10,10,2,0,0.00
2013-4-16,64,51,38,53,43,32,99,77,52,30.20,29.89,12,4,0,0.13
2013-4-17,65,52,35,53,36,29,99,60,28,30.22,29.91,11,4,0,0.00
2013-4-18,67,48,27,44,33,27,99,61,32,30.29,29.96,10,4,0,0.00
2013-4-19,73,61,50,63,56,45,96,84,67,29.95,29.42,18,5,0,0.29
2013-4-20,56,47,36,54,35,20,99,66,37,30.11,29.49,11,5,0,0.52
2013-4-21,56,40,27,24,20,16,82,48,22,30.54,30.12,10,4,0,0.00
2013-4-22,62,41,24,30,25,19,95,59,25,30.61,30.44,8,3,0,0.00
2013-4-23,44,38,29,38,34,27,97,85,74,30.46,30.03,5,2,0,0.00
2013-4-24,80,56,39,50,44,38,99,69,29,30.03,29.58,11,4,0,0.00
2013-4-25,65,50,32,50,35,27,97,58,25,30.15,29.60,12,4,0,0.04
2013-4-26,65,45,26,38,32,25,99,64,29,30.28,30.16,7,2,0,0.00
2013-4-27,73,49,29,40,34,28,99,62,22,30.30,30.12,8,2,0,0.00
2013-4-28,81,53,29,43,35,28,99,57,19,30.20,29.99,7,2,0,0.01
2013-4-29,69,56,43,45,38,32,68,52,35,30.11,30.02,9,3,0,0.00
2013-4-30,81,61,47,43,37,30,68,44,21,30.19,30.09,8,2,0,0.00
2013-5-1,87,58,34,41,34,28,92,49,12,30.33,30.19,8,2,0,0.00
2013-5-2,86,58,37,47,39,27,97,55,22,30.35,30.14,8,2,0,0.00
2013-5-3,79,55,34,46,39,30,97,60,29,30.41,30.21,9,2,0,0.00
2013-5-4,84,57,36,49,40,30,99,61,15,30.24,30.06,9,2,0,0.00
2013-5-5,84,56,32,41,35,30,97,54,15,30.18,30.02,6,2,0,0.00
2013-5-6,85,57,34,46,36,25,99,57,13,30.13,29.95,6,2,0,0.00
2013-5-7,90,63,39,55,45,38,99,61,21,30.04,29.89,9,3,0,0.00
2013-5-8,77,62,47,64,58,47,99,88,55,30.06,29.89,7,2,0,0.41
2013-5-9,77,64,54,64,58,54,99,85,56,29.89,29.72,5,1,0,0.15
2013-5-10,82,64,53,64,57,52,99,82,48,29.84,29.72,5,1,0,0.00
2013-5-11,68,62,58,66,60,56,99,95,84,29.72,29.53,6,2,0,0.39
2013-5-12,67,56,43,58,45,26,99,69,31,29.66,29.46,14,3,0,0.00
2013-5-13,53,45,39,36,30,27,87,55,39,29.92,29.67,13,4,0,0.00
2013-5-14,55,43,32,37,33,27,98,73,36,29.93,29.87,10,2,0,0.00
2013-5-15,63,46,27,51,39,26,99,80,33,29.92,29.52,11,2,0,0.02
2013-5-16,80,61,43,51,42,30,99,59,22,29.71,29.49,13,4,0,0.01
2013-5-17,71,54,38,44,40,35,99,65,29,30.09,29.71,12,2,0,0.00
2013-5-18,80,54,33,49,41,32,99,70,24,30.18,30.06,5,1,0,0.00
2013-5-19,70,55,40,57,50,39,99,87,57,30.19,30.04,8,2,0,0.20
2013-5-20,85,65,55,66,59,54,99,83,50,30.03,29.81,6,2,0,0.00
2013-5-21,72,58,52,63,55,50,99,93,67,29.89,29.71,11,2,0,0.41
2013-5-22,78,62,52,70,60,51,99,93,73,29.82,29.69,6,2,0,1.33
2013-5-23,77,67,60,71,65,59,99,93,79,29.73,29.61,8,2,0,0.06
2013-5-24,68,57,45,66,55,44,99,93,84,29.77,29.50,8,3,0,0.74
2013-5-25,45,43,37,44,42,36,98,97,93,29.77,29.68,10,3,0,0.39
2013-5-26,57,46,36,44,40,35,99,81,57,29.95,29.63,15,5,0,0.02
2013-5-27,76,52,30,45,38,30,99,68,24,30.05,29.94,14,3,0,0.00
2013-5-28,78,56,35,50,43,34,99,67,27,30.13,29.99,5,2,0,0.00
2013-5-29,68,60,56,64,58,50,99,93,81,30.01,29.83,3,1,0,0.59
2013-5-30,72,61,58,69,61,58,99,98,90,29.95,29.89,4,1,0,0.01
2013-5-31,99,83,66,68,64,56,96,59,27,29.85,29.79,8,2,0,0.00
2013-6-1,101,77,61,72,66,60,99,73,33,29.83,29.69,7,2,0,0.00
2013-6-2,91,74,65,73,68,65,99,84,53,29.72,29.52,14,2,0,0.55
2013-6-3,82,69,50,67,58,46,99,74,39,29.72,29.64,8,2,0,0.01
2013-6-4,74,56,41,50,45,40,97,69,37,29.97,29.72,11,3,0,0.00
2013-6-5,83,60,42,53,46,41,98,67,27,30.07,29.94,8,2,0,0.00
2013-6-6,76,61,46,56,50,44,97,71,43,30.06,29.93,7,1,0,0.06
2013-6-7,57,53,52,56,52,50,99,95,90,29.96,29.74,3,1,0,1.57
2013-6-8,72,62,51,61,57,51,99,85,65,29.88,29.58,9,3,0,0.53
2013-6-9,83,67,54,59,56,53,98,73,39,30.05,29.88,8,2,0,0.00
2013-6-10,74,61,50,64,57,49,99,87,68,30.08,29.85,5,1,0,0.50
2013-6-11,64,58,56,59,56,54,98,93,80,29.85,29.44,5,1,0,1.35
2013-6-12,71,60,50,56,54,49,98,81,54,29.71,29.44,12,4,0,0.06
2013-6-13,63,54,46,59,52,45,99,93,80,29.70,29.58,3,1,0,0.45
2013-6-14,83,64,53,60,54,48,98,74,36,29.69,29.55,7,2,0,0.04
2013-6-15,82,60,44,55,48,43,99,72,28,29.80,29.69,8,2,0,0.00
2013-6-16,73,60,48,60,54,46,97,82,55,29.81,29.57,5,2,0,0.00
2013-6-17,83,65,52,63,58,52,99,81,41,29.77,29.64,8,2,0,0.08
2013-6-18,65,59,52,60,56,50,97,91,82,29.84,29.76,5,1,0,0.05
2013-6-19,79,61,47,53,48,43,98,68,31,30.04,29.82,7,2,0,0.00
2013-6-20,88,62,40,55,46,38,97,65,18,30.15,30.04,6,2,0,0.00
2013-6-21,92,67,49,61,52,46,94,65,28,30.12,30.05,7,2,0,0.00
2013-6-22,92,69,51,69,60,50,96,76,41,30.09,29.94,6,1,0,0.00
2013-6-23,94,76,63,74,66,60,93,74,48,30.00,29.81,7,2,0,0.04
2013-6-24,91,76,67,72,68,63,97,78,52,29.88,29.77,8,2,0,0.01
2013-6-25,92,74,65,72,66,64,96,79,41,29.83,29.61,10,2,0,0.44
2013-6-26,81,71,63,71,67,62,96,88,67,29.71,29.61,4,1,0,0.28
2013-6-27,90,72,62,73,66,61,96,82,54,29.71,29.58,8,2,0,0.00
2013-6-28,88,69,60,74,64,57,95,86,62,29.58,29.30,6,2,0,2.84
2013-6-29,89,73,66,70,66,63,97,81,50,29.55,29.35,10,1,0,0.16
2013-6-30,86,73,64,74,67,62,95,85,61,29.78,29.55,5,1,0,0.48
2013-7-1,82,72,68,74,70,67,96,91,78,29.92,29.78,5,1,0,0.12
2013-7-2,92,76,68,76,71,66,98,86,61,30.03,29.90,8,2,0,0.96
2013-7-3,95,77,66,76,70,65,97,82,52,30.05,29.98,5,2,0,0.20
2013-7-4,100,80,68,78,72,67,97,77,43,30.07,29.94,9,2,0,0.00
2013-7-5,100,81,69,76,71,68,96,75,38,30.03,29.89,8,2,0,0.05
2013-7-6,92,77,67,75,69,65,95,79,44,29.96,29.87,7,1,0,0.00
2013-7-7,91,76,64,76,69,62,95,79,54,29.91,29.76,5,1,0,0.00
2013-7-8,87,77,71,72,70,67,95,80,58,29.92,29.79,6,1,0,0.12
2013-7-9,91,73,67,73,67,64,92,84,53,29.97,29.89,7,2,0,0.02
2013-7-10,85,74,69,74,70,67,96,89,71,29.91,29.65,7,1,0,0.48
2013-7-11,87,74,61,73,68,58,97,83,50,29.85,29.61,5,1,0,0.00
2013-7-12,91,71,59,68,61,57,96,74,40,30.08,29.86,6,2,0,0.00
2013-7-13,78,68,59,69,63,56,94,84,64,30.18,30.08,4,1,0,0.04
2013-7-14,96,76,66,75,69,64,96,81,45,30.19,30.08,4,1,0,0.00
2013-7-15,98,79,66,73,68,64,95,74,37,30.11,29.98,7,1,0,0.00
2013-7-16,96,78,64,74,67,61,95,72,40,30.07,30.00,7,1,0,0.00
2013-7-17,100,79,63,74,68,61,95,72,35,30.08,29.86,8,2,0,0.00
2013-7-18,103,81,69,75,70,66,94,72,35,29.89,29.79,10,2,0,0.00
2013-7-19,100,82,68,76,70,66,94,71,37,29.82,29.56,15,2,0,0.25
2013-7-20,90,76,65,72,67,62,95,77,47,29.68,29.53,8,2,0,0.01
2013-7-21,91,72,59,68,62,58,95,75,39,29.86,29.69,4,1,0,0.00
2013-7-22,86,69,60,71,64,58,95,85,58,29.90,29.73,6,2,0,0.48
2013-7-23,85,70,65,72,66,63,96,88,61,29.73,29.41,5,2,0,1.70
2013-7-24,81,69,54,70,60,47,97,76,48,29.89,29.46,12,3,0,0.00
2013-7-25,74,61,46,62,52,43,95,76,56,29.98,29.88,7,2,0,0.00
2013-7-26,79,66,61,64,59,57,90,79,57,29.95,29.85,6,2,0,0.00
2013-7-27,66,64,63,62,61,61,93,90,87,29.87,29.85,3,2,0,0.00
2013-7-28,83,70,58,69,64,57,96,82,54,29.88,29.80,6,1,0,0.09
2013-7-29,72,70,65,68,67,63,96,90,87,29.88,29.83,5,3,0,0.10
2013-7-30,72,72,72,68,68,68,87,87,87,29.88,29.88,5,5,0,0.00
2013-7-31,72,72,72,68,68,68,87,87,87,29.88,29.88,5,5,0,0.00
2013-8-1,72,72,72,68,68,68,87,87,87,29.88,29.88,5,5,0,0.00
2013-8-2,72,72,72,68,68,68,87,87,87,29.88,29.88,5,5,0,0.00
2013-8-3,72,72,72,68,68,68,87,87,87,29.88,29.88,5,5,0,0.00
2013-8-4,72,72,72,68,68,68,87,87,87,29.88,29.88,5,5,0,0.00
2013-8-5,72,72,72,68,68,68,87,87,87,29.88,29.88,5,5,0,0.00
2013-8-6,72,72,72,68,68,68,87,87,87,29.88,29.88,5,5,0,0.00
2013-8-7,72,72,72,68,68,68,87,87,87,29.88,29.88,5,5,0,0.00
2013-8-8,72,72,72,68,68,68,87,87,87,29.88,29.88,5,5,0,0.00
2013-8-9,72,72,72,68,68,68,87,87,87,29.88,29.88,5,5,0,0.00
2013-8-10,72,72,72,68,68,68,87,87,87,29.88,29.88,5,5,0,0.00
2013-8-11,72,72,72,68,68,68,87,87,87,29.88,29.88,5,5,0,0.00
2013-8-12,72,72,72,68,68,68,87,87,87,29.88,29.88,5,5,0,0.00
2013-8-13,72,72,72,68,68,68,87,87,87,29.88,29.88,5,5,0,0.00
2013-8-14,53,51,50,51,50,48,95,94,92,29.84,29.81,2,0,0,0.00
2013-8-15,80,60,44,56,50,44,97,74,37,29.99,29.84,8,2,0,0.00
2013-8-16,88,63,46,60,52,45,96,73,30,30.07,29.98,6,1,0,0.00
2013-8-17,90,65,51,64,55,49,95,74,29,30.17,30.08,6,1,0,0.00
2013-8-18,80,65,54,65,59,52,95,81,54,30.16,29.96,3,1,0,0.00
2013-8-19,88,67,53,65,58,52,96,78,35,29.96,29.82,6,1,0,0.00
2013-8-20,92,70,53,66,59,52,96,74,35,29.98,29.87,7,1,0,0.00
2013-8-21,96,71,56,67,61,55,96,74,35,30.04,29.90,8,2,0,0.00
2013-8-22,93,73,57,68,63,56,96,74,36,29.91,29.68,6,2,0,0.22
2013-8-23,79,66,52,66,57,47,96,74,41,30.04,29.71,7,2,0,0.01
2013-8-24,89,62,46,59,49,41,95,70,20,30.22,30.04,5,2,0,0.00
2013-8-25,89,64,45,62,53,43,94,73,31,30.27,30.03,5,1,0,0.00
2013-8-26,83,69,60,67,63,54,95,82,56,30.05,29.74,6,1,0,0.33
2013-8-27,94,74,66,76,68,64,96,81,49,29.77,29.69,6,1,0,0.00
2013-8-28,95,73,63,76,67,62,97,83,56,29.87,29.71,6,1,0,1.12
2013-8-29,78,67,63,68,64,59,97,89,67,29.94,29.83,5,1,0,0.09
2013-8-30,93,72,62,79,66,60,99,83,58,29.90,29.67,6,1,0,0.00
2013-8-31,81,72,65,77,70,65,99,96,85,29.69,29.61,6,2,0,0.21
2013-9-1,90,74,67,80,71,67,99,91,70,29.73,29.65,4,1,0,0.00
2013-9-2,85,74,68,80,73,67,99,95,79,29.71,29.55,5,1,0,0.41
2013-9-3,78,68,57,73,66,57,99,92,71,29.69,29.60,6,2,0,0.14
2013-9-4,83,65,54,77,62,54,99,92,78,29.77,29.68,8,2,0,0.00
2013-9-5,71,59,43,63,55,43,99,88,57,30.04,29.73,8,2,0,0.00
2013-9-6,78,53,36,61,48,35,99,85,40,30.13,29.96,6,1,0,0.00
2013-9-7,77,57,42,74,55,42,99,93,75,29.96,29.71,5,1,0,0.02
2013-9-8,70,59,42,64,56,42,99,91,71,29.98,29.64,11,2,0,0.00
2013-9-9,74,53,35,70,51,35,99,94,77,30.12,29.97,6,1,0,0.00
2013-9-10,75,62,50,75,62,50,99,99,99,29.99,29.87,6,2,0,0.11
2013-9-11,101,78,67,100,77,67,99,98,90,29.93,29.78,8,2,0,0.08
2013-9-12,79,69,66,79,69,66,99,99,99,29.82,29.52,6,1,0,2.30
2013-9-13,68,64,56,67,64,56,99,99,99,29.68,29.47,7,2,0,0.07
2013-9-14,64,56,48,64,56,48,99,99,98,29.93,29.67,9,2,0,0.00
2013-9-15,75,56,46,74,55,45,99,99,93,30.03,29.90,5,1,0,0.00
2013-9-16,66,54,39,65,54,38,99,99,94,30.16,29.87,9,2,0,0.01
2013-9-17,73,48,32,72,47,32,99,98,83,30.32,30.17,7,2,0,0.00
2013-9-18,82,53,34,79,52,34,99,98,78,30.21,30.00,5,1,0,0.00
2013-9-19,88,57,42,86,56,42,99,97,52,30.03,29.89,4,1,0,0.00
2013-9-20,87,60,47,87,60,47,99,99,94,29.99,29.84,5,1,0,0.00
2013-9-21,76,61,49,76,61,48,99,99,99,29.86,29.51,8,2,0,0.02
2013-9-22,68,60,46,67,60,45,99,99,99,29.74,29.44,11,3,0,1.32
2013-9-23,63,50,38,63,50,37,99,99,99,29.90,29.73,9,3,0,0.00
2013-9-24,68,54,45,67,54,45,99,99,90,29.88,29.71,11,3,0,0.00
2013-9-25,77,54,37,77,53,37,99,99,99,29.87,29.74,7,1,0,0.00
2013-9-26,72,54,40,72,54,39,99,99,99,30.02,29.87,6,2,0,0.00
2013-9-27,72,54,44,72,53,7,99,98,18,30.16,30.02,6,1,0,0.00
2013-9-28,81,57,42,81,56,42,99,99,99,30.23,30.12,6,2,0,0.00
2013-9-29,84,57,45,84,56,44,99,99,99,30.14,29.95,5,1,0,0.00
2013-9-30,82,55,40,82,54,40,99,99,99,29.99,29.82,7,1,0,0.00
2013-10-1,88,59,43,87,58,42,99,99,99,29.88,29.72,5,1,0,0.00
2013-10-2,83,61,46,83,61,46,99,99,99,29.84,29.71,9,2,0,0.00
2013-10-3,87,59,42,83,58,42,99,98,76,29.98,29.84,5,1,0,0.00
2013-10-4,66,55,46,66,54,45,99,99,99,29.98,29.91,3,1,0,0.06
2013-10-5,66,60,56,66,59,55,99,99,99,29.99,29.93,4,0,0,0.00
2013-10-6,58,53,51,58,53,51,99,99,99,30.09,29.98,4,1,0,0.31
2013-10-7,71,57,50,71,57,50,99,99,99,29.99,29.56,11,2,0,0.46
2013-10-8,67,50,36,67,50,36,99,99,97,30.26,29.78,8,2,0,0.01
2013-10-9,72,47,35,71,46,34,99,99,99,30.38,30.23,5,1,0,0.00
2013-10-10,60,46,34,60,46,34,99,99,99,30.24,30.06,4,1,0,0.00
2013-10-11,70,53,41,70,53,41,99,99,99,30.06,29.97,6,1,0,0.00
2013-10-12,60,51,43,60,51,42,99,99,99,30.26,30.05,5,1,0,0.00
2013-10-13,71,54,39,71,53,39,99,99,99,30.31,30.22,5,1,0,0.00
2013-10-14,73,56,43,73,55,42,99,99,99,30.25,30.08,6,1,0,0.00
2013-10-15,68,59,51,68,59,50,99,99,99,30.13,30.02,3,1,0,0.00
2013-10-16,64,55,49,64,55,48,99,99,99,30.02,29.74,5,1,0,0.00
2013-10-17,77,58,50,77,58,50,99,99,99,29.74,29.56,12,2,0,0.05
2013-10-18,64,54,42,64,54,42,99,99,99,29.76,29.44,8,2,0,0.28
2013-10-19,70,50,32,70,50,32,99,99,99,29.82,29.57,6,2,0,0.00
2013-10-20,60,49,33,60,48,33,99,99,99,29.88,29.53,13,3,0,0.00
2013-10-21,71,46,28,71,46,28,99,99,99,29.98,29.80,6,2,0,0.00
2013-10-22,58,46,31,57,45,31,99,99,99,29.80,29.57,10,2,0,0.00
2013-10-23,58,41,29,58,41,29,99,99,99,29.65,29.45,5,1,0,0.00
2013-10-24,50,40,28,50,40,27,99,99,99,29.73,29.51,15,3,0,0.00
2013-10-25,51,36,26,51,36,26,99,99,99,29.99,29.73,10,2,0,0.00
2013-10-26,51,39,26,51,39,25,99,99,99,29.99,29.68,9,2,0,0.00
2013-10-27,54,44,30,53,43,29,99,99,99,29.90,29.62,10,3,0,0.00
2013-10-28,55,38,24,55,38,24,99,99,99,30.22,29.90,10,3,0,0.00
2013-10-29,56,31,17,47,29,17,99,95,56,30.33,30.21,7,1,0,0.00
2013-10-30,55,36,25,55,35,25,99,99,99,30.21,30.05,3,0,0,0.00
2013-10-31,57,40,26,57,39,26,99,99,99,30.10,29.58,9,2,0,0.53
2013-11-1,68,59,47,68,58,47,99,99,99,29.56,29.23,13,4,0,1.14
2013-11-2,70,48,35,70,48,35,99,99,99,29.67,29.45,8,1,0,0.05
2013-11-3,45,36,22,43,35,22,99,97,73,30.31,29.67,14,5,0,0.00
2013-11-4,46,28,16,40,25,16,99,93,55,30.55,30.31,9,2,0,0.00
2013-11-5,52,32,19,52,32,19,99,99,99,30.56,30.34,7,1,0,0.00
2013-11-6,63,46,31,63,46,30,99,99,99,30.34,29.84,10,2,0,0.00
2013-11-7,55,49,38,55,48,37,99,99,99,29.82,29.56,11,3,0,0.12
2013-11-8,37,32,27,37,32,27,99,99,99,29.70,29.69,8,2,0,0.00
2013-11-10,48,42,30,48,42,29,99,99,99,29.72,29.58,11,3,0,0.00
2013-11-11,54,42,36,52,41,35,99,98,79,29.93,29.72,9,3,0,0.00
2013-11-12,43,32,22,42,32,22,99,99,99,30.06,29.72,11,4,0,0.00
2013-11-13,36,26,19,33,24,19,99,95,70,30.15,29.96,11,3,0,0.00
2013-11-14,53,34,24,49,33,24,99,98,72,29.95,29.89,8,3,0,0.00
2013-11-15,60,35,22,50,32,22,99,92,40,30.04,29.94,5,2,0,0.00
2013-11-16,67,39,27,57,37,27,99,93,51,30.16,30.03,5,1,0,0.00
2013-11-17,45,36,26,45,36,26,99,99,99,30.16,29.63,3,0,0,0.08
2013-11-18,65,53,43,65,53,43,99,99,99,29.61,29.32,11,3,0,0.53
2013-11-19,44,35,26,44,35,26,99,99,99,30.18,29.52,14,6,0,0.00
2013-11-20,44,27,18,41,26,17,99,98,78,30.49,30.18,10,2,0,0.00
2013-11-21,50,28,13,42,27,12,99,95,55,30.50,30.21,5,1,0,0.00
2013-11-22,41,36,31,40,36,31,99,99,99,30.20,29.67,3,0,0,0.24
2013-11-23,43,35,25,42,35,25,99,99,99,29.81,29.62,14,5,0,0.01
2013-11-24,25,20,15,25,17,11,99,89,61,30.06,29.65,21,8,0,0.02
2013-11-25,38,22,9,29,18,5,99,86,34,30.21,30.05,11,2,0,0.00
2013-11-26,36,31,28,35,31,28,99,99,99,30.14,29.89,6,2,0,0.02
2013-11-27,38,35,32,38,34,32,99,99,99,29.87,29.13,6,2,0,2.03
2013-11-28,34,24,10,34,24,10,99,96,71,30.27,29.32,15,5,0,0.00
2013-11-29,31,17,6,30,16,6,99,96,72,30.60,30.27,9,2,0,0.00
2013-11-30,35,18,2,30,18,2,99,98,77,30.66,30.25,6,1,0,0.00
2013-12-1,43,32,25,43,32,25,99,99,99,30.25,29.88,2,0,0,0.00
2013-12-2,40,33,27,40,33,27,99,99,99,29.88,29.75,3,1,0,0.00
2013-12-3,43,32,26,43,32,25,99,99,99,29.82,29.73,5,1,0,0.00
2013-12-4,46,30,21,45,29,21,99,99,99,30.04,29.81,7,1,0,0.00
2013-12-5,39,33,24,39,33,24,99,99,99,30.04,29.73,4,1,0,0.02
2013-12-6,45,39,32,44,39,32,99,99,99,29.99,29.70,5,2,0,0.26
2013-12-7,38,30,22,38,30,22,99,99,99,30.29,29.94,10,3,0,0.04
2013-12-8,30,25,17,30,24,17,99,99,99,30.42,30.29,4,1,0,0.00
2013-12-9,31,28,23,31,27,23,99,99,99,30.32,29.72,4,1,0,0.00
2013-12-10,36,28,18,36,27,18,99,99,99,29.81,29.64,7,2,0,0.00
2013-12-11,32,24,17,32,24,17,99,99,99,29.99,29.81,10,3,0,0.00
2013-12-12,24,13,2,19,10,2,99,91,55,30.12,29.85,14,3,0,0.00
2013-12-13,27,14,2,26,14,1,99,99,99,30.25,29.77,8,3,0,0.00
2013-12-14,12,6,0,11,6,0,99,99,99,30.46,30.04,8,3,0,0.00
2013-12-15,31,20,9,30,20,9,99,99,99,30.02,29.33,7,1,0,0.00
2013-12-16,27,17,-3,25,16,-3,99,96,65,30.03,29.54,10,3,0,0.00
2013-12-17,10,1,-14,9,1,-14,99,99,99,30.11,29.86,4,1,0,0.00
2013-12-18,38,17,5,38,16,4,99,99,99,29.87,29.76,6,2,0,0.00
2013-12-19,43,28,18,43,27,18,99,99,99,29.92,29.77,7,2,0,0.07
2013-12-20,43,33,27,43,32,26,99,99,99,29.93,29.74,3,2,0,0.25
2013-12-21,51,37,33,51,37,33,99,99,99,29.78,29.68,5,2,0,0.20
2013-12-22,47,38,34,47,38,34,99,99,99,29.78,29.56,4,2,0,0.08
2013-12-23,37,35,34,37,35,33,99,99,99,29.98,29.76,9,2,0,0.47
2013-12-24,33,27,18,33,27,18,99,99,99,30.08,29.91,12,4,0,0.00
2013-12-25,24,15,8,23,15,8,99,99,98,30.36,30.08,9,3,0,0.00
2013-12-26,30,22,16,30,21,15,99,99,99,30.28,29.93,3,1,0,0.00
2013-12-27,35,26,17,34,26,16,99,99,99,30.09,30.01,6,2,0,0.00
2013-12-28,42,29,18,42,28,18,99,99,99,30.03,29.82,8,3,0,0.07
2013-12-29,37,30,24,37,30,24,99,99,99,29.87,29.40,4,1,0,0.48
2013-12-30,36,26,8,36,26,8,99,99,99,30.02,29.42,6,2,0,0.09
2013-12-31,21,11,1,21,11,1,99,99,99,30.03,29.86,7,1,0,0.00
2014-1-1,27,14,4,27,14,4,99,99,99,30.21,30.00,6,1,0,0.00
2014-1-2,13,6,3,12,6,3,99,99,99,30.19,29.75,8,4,0,0.00